Location: All Nations United Methodist Church
(33.0215°N, 96.7483°W)
Time: 15:45:06
(UTC+00:00)

NOAA 6 - Pass Details

Date: 24 January 2021
Orbit: 772 x 787 km, 98.7° (Epoch: 06 March)

Event Time Altitude Azimuth Distance (km) Brightness Sun altitude
Rises 12:14:04 0° 15° (NNE) 3,283 7.3 -15.3°
Reaches altitude 10° 12:16:25 10° 18° (NNE) 2,351 6.6 -14.9°
Maximum altitude 12:21:36 72° 102° (ESE) 828 4.3 -13.8°
Drops below altitude 10° 12:26:44 10° 187° (S) 2,335 6.6 -12.8°
Sets 12:29:03 0° 189° (S) 3,259 7.3 -12.3°
